Location: Plymouth Village
(34.0436°N, 117.1717°W)
Time: 03:45:30
(UTC+00:00)

Cosmos 1763 Rocket - Pass Details

Date: 10 September 2024
Orbit: 730 x 776 km, 74.0° (Epoch: 09 October)

Event Time Altitude Azimuth Distance (km) Brightness Sun altitude
Rises 12:37:40 0° 330° (NNW) 3,190 6.5 -11.3°
Reaches altitude 10° 12:40:14 10° 320° (NW) 2,270 5.7 -10.8°
Maximum altitude 12:44:41 30° 260° (W) 1,323 4.2 -9.9°
Drops below altitude 10° 12:49:10 10° 200° (SSW) 2,285 5.7 -9.0°
Sets 12:51:47 0° 190° (S) 3,214 6.5 -8.4°
